Regional Weather Roundup
Issued by NWS

Home | Current Version | Previous Version | Text Only | Print | Product List | Glossary Off
Versions: 1 2 3 4 5 6 7 8 9 10 11 12 13 14 15 16 17 18 19 20 21 22 23 24 25 26 27

000
ASUS43 KDMX 240507
RWRIA

WEATHER ROUNDUP FOR IOWA
NATIONAL WEATHER SERVICE DES MOINES IA
1200 AM CDT THU APR 24 2014

NOTE: "FAIR" INDICATES FEW OR NO CLOUDS BELOW 12,000 FEET WITH NO
SIGNIFICANT WEATHER AND/OR OBSTRUCTIONS TO VISIBILITY.

* - THESE STATIONS ARE NOT NWS STATIONS...THUS NOT UNDER NWS
QUALITY CONTROL.  THEY ALSO DO NOT REPORT WEATHER SUCH
AS PRECIPITATION OR FOG.

IAZ001>003-012>014-020>022-031>034-043>046-240600-
   NORTHWEST IOWA

CITY           SKY/WX    TMP DP  RH WIND       PRES   REMARKS
CARROLL *      CLOUDY    48  41  76 E16       29.75F
CHEROKEE *     RAIN      48  45  87 SE10G18   29.74F
DENISON *      MOCLDY    48  43  81 NE9       29.72F
LE MARS *        N/A     50  46  87 E14G20    29.69F
ORANGE CITY *  DRIZZLE   48  43  81 SE13G21   29.69F
SHELDON *      MOCLDY    45  43  93 SE30G37   29.67F
SIOUX CITY     RAIN      54  49  83 SE20G31   29.67S
SPENCER        CLOUDY    46  41  82 SE16      29.77R
STORM LAKE *   CLOUDY    46  45  93 SE22G28   29.76S FOG
$$

IAZ055>058-069>071-079>083-090>094-240600-
   SOUTHWEST IOWA

CITY           SKY/WX    TMP DP  RH WIND       PRES   REMARKS
ATLANTIC *     CLOUDY    55  41  58 SE10G18   29.70R
AUDUBON *      CLOUDY    50  41  71 E8        29.74F
CLARINDA *     MOCLDY    59  43  55 SE14      29.68F
COUNCIL BLFS * CLOUDY    52  48  87 NE5       29.65F
CRESTON *      MOCLDY    52  41  66 SE20G28   29.74S
HARLAN  *      CLOUDY    50  45  81 E6        29.74S
LAMONI         CLOUDY    55  37  50 SE10G21   29.76S
RED OAK *      MOCLDY    59  41  51 SE28G37   29.61F
SHENANDOAH *   PTCLDY    61  41  48 SE23G31   29.60F
$$

IAZ047>049-059>061-072>074-084-240600-
   CENTRAL IOWA

CITY           SKY/WX    TMP DP  RH WIND       PRES   REMARKS
AMES           LGT RAIN  48  39  71 SE15      29.81S
ANKENY *       MOCLDY    50  39  66 SE12      29.81F
CHARITON *     CLOUDY    54  36  50 SE16G24   29.80R
DES MOINES     CLOUDY    52  39  61 SE7       29.80S
GRINNELL*      CLOUDY    48  39  71 E13G18    29.85F
KNOXVILLE *    CLOUDY    54  34  47 SE16G25   29.81S
MARSHALLTOWN   CLOUDY    46  40  79 SE14      29.85S
NEWTON *       CLOUDY    48  37  66 SE18      29.83F
PELLA *        CLOUDY    49  38  66 SE9       29.84F
PERRY *        DRIZZLE   48  39  71 SE17      29.76F
$$

IAZ004>006-015-016-023>025-035-036-240600-
   NORTH CENTRAL IOWA

CITY           SKY/WX    TMP DP  RH WIND       PRES   REMARKS
ALGONA *       MOCLDY    45  41  87 SE18G26   29.79F
CLARION *      CLOUDY    45  41  87 SE18G25   29.82S
ESTHERVILLE    CLOUDY    43  41  93 SE14      29.80R
FORT DODGE *   CLOUDY    45  39  81 SE14G21   29.80F
MASON CITY     LGT RAIN  43  40  89 SE22G30   29.86F
FOREST CITY *  RAIN      43  39  87 SE17G24   29.83F
IOWA FALLS *   DRIZZLE   45  41  87 E14       29.85F
$$

IAZ007>011-017>019-026>030-037>042-050>054-066-240600-
   NORTHEAST IOWA

CITY           SKY/WX    TMP DP  RH WIND       PRES   REMARKS
CEDAR RAPIDS   CLOUDY    47  39  74 SE17      29.89R
CHARLES CITY * LGT RAIN  45  39  81 SE18G25   29.90F
CLINTON *      CLOUDY    45  36  70 E16       29.99F
DECORAH *      CLOUDY    45  37  76 E10G20    29.95R
DUBUQUE        CLOUDY    45  34  65 SE17      29.96S
MONTICELLO *   CLOUDY    48  37  66 E17G23    29.93R
OELWEIN *      DRIZZLE  N/A N/A N/A SE16      29.92R
WATERLOO       LGT RAIN  46  39  76 SE18      29.89R
$$

IAZ064-065-067-068-078-240600-
   EAST CENTRAL IOWA

CITY           SKY/WX    TMP DP  RH WIND       PRES   REMARKS
DAVENPORT      CLOUDY    47  38  71 E21       29.93F
IOWA CITY      CLOUDY    48  40  73 SE12      29.91S
MT. PLEASANT * MOCLDY    52  32  46 SE13      29.88S
MUSCATINE *    PTCLDY    50  39  66 SE8G15    29.91R
QUAD CITIES    CLOUDY    47  39  74 E17       29.93F
$$

IAZ062-063-075>077-085>089-095>099-240600-
   SOUTHEAST IOWA

CITY           SKY/WX    TMP DP  RH WIND       PRES   REMARKS
BURLINGTON     MOCLDY    52  33  48 SE13      29.89F
FAIRFIELD *    CLOUDY    50  34  53 SE15      29.86S
FORT MADISON * CLEAR     52  32  46 SE10      29.89F
KEOKUK *       CLEAR     54  32  43 SE14G22   29.86F
OSKALOOSA *      N/A     48  37  66 E9        29.85R
CENTERVILLE *  CLEAR     54  36  50 SE16      29.82F
OTTUMWA        MOCLDY    51  34  52 SE13      29.83R
WASHINGTON *   CLEAR     50  37  62 SE15      29.88R
$$

ABBREVIATIONS USED IN REMARKS
   TC - TEMPERATURES IN CELSIUS
  WCI - WIND CHILL INDEX
   HX - HEAT INDEX
  VSB - VISIBILITY
$$




USA.gov is the U.S. government's official web portal to all federal, state and local government web resources and services.